COSMOS 2251 DEB, 35465

Orbit data source: Space-Track

COSMOS 2251 DEB, 35465 is space debris in LEO originally from a launch on Wed, 16 Jun 1993 UTC launched from the Plesetsk Missile And Space Complex (PKMTR). The debris from Iridium 33, an American commercial communications satellite, has been tracked extensively since its accidental collision with the defunct Russian satellite Cosmos 2251 in 2009. This event, occurring at high speed in low Earth orbit (LEO), generated thousands of pieces of space debris, significantly increasing the risk of further collisions. The Iridium 33 debris cloud has impacted space traffic management and orbital debris mitigation strategies, making it a subject of ongoing study in space situational awareness.

Loading next visibility...
Identifier
35465, 1993-036ALK
Orbit
LEO
Country
Flag of CISCIS
Related business
Manufacturer
Unknown
Mission
Spacecraft
Bus & Motor
Unknown
Mass
Unknown
Launch date (UTC)
1993-06-16 (33 years ago)
Launch vehicle
Unknown
Launch site
Plesetsk Missile And Space Complex (PKMTR)
Object type
Payload
Rocket body
Debris
Shape & HBR
Unknown shape, 0.1 m
Radar Cross Section
Small (<0.1 m²)

Expand to show TLE details & history
Last TLE update: 19 hours ago

TLE from 19 hours ago
0 COSMOS 2251 DEB
1 35465U 93036ALK 26144.71462689  .00000640  00000-0  18750-3 0  9998
2 35465  73.9991 252.9370 0064026  14.6771 345.6226 14.44790590895952
Epoch: 2026-05-24T17:09Z
TLE epoch observation values (Epoch: 2026-05-24T17:09:03.763Z)
Latitude
0.00007°
Longitude
113.35854°
Altitude
701.18 km
Speed
7.529 km/s
True Right ascension
16h 51m 44s
True Declination
0° 00' 00"
Sunlit
Object was in full shadow at epoch
Visualization orbit readout
Latitude
Unknown
Longitude
Unknown
Altitude
Unknown
Speed
Unknown
Apparent Right ascension
Unknown
Apparent Declination
Unknown
Sunlit
N/A
Visualization observer readout
Local Sidereal Time
21:45:50
Azimuth
Unknown
Elevation
Unknown
Doppler factor
Unknown
Orbital elements
Apogee altitude
785.908 km
Perigee altitude
694.755 km
Semi-major axis
7,118.468 km
Eccentricity
0.0064
Inclination
73.9991°
RAAN
252.937°
Arg. of periapsis
14.6771°
True anomaly
345.439°
Mean anomaly
345.6226°
Eccentric anomaly
345.53094°
Mean motion
3.61379 °/min
Orbital period
99.62 mins
BSTAR
0.0001875
Loading maneuver chart data...
Computing Atmospheric mass density...
Loading historical data...
Loading historical data...
Loading historical data...
Loading historical data...
Loading historical data...
Loading historical data...
Loading historical data...

Documentation

Showing up to 5 results
|